Avalon, CA

6:06 PM PDT on June 27, 2017 (GMT -0700)
Catalina

Weather History for KAVX - January, 2014

Change the Weather History Date:

Monday, January 13, 2014

  Actual Average Record
Temperature  
Mean Temperature 66 °F -  
Max Temperature 72 °F 59 °F 75 °F (2009)
Min Temperature 61 °F 49 °F 39 °F (2013)
Cooling Degree Days 2    
Growing Degree Days 16 (Base 50)    
Moisture  
Dew Point 13 °F    
Average Humidity 13    
Maximum Humidity 26    
Minimum Humidity 8    
Precipitation  
Precipitation 0.00 in - - ()
Sea Level Pressure  
Sea Level Pressure 30.24 in    
Wind  
Wind Speed 10 mph (ENE)    
Max Wind Speed 14 mph    
Max Gust Speed 17 mph    
Visibility 10 miles    
Events      
Averages and records for this station are not official NWS values.
T = Trace of Precipitation, MM = Missing Value Source: NWS Daily Summary

Daily Weather History Graph

Daily Weather History Graph

Search for Another Location

Airport or City:

Trip Planner

Search our weather history database for the weather conditions in past years. The results will help you decide how hot, cold, wet, or windy it might be!

Date:

Astronomy

Jan. 13, 2014 Rise Set
Actual Time 6:57 AM PST 5:07 PM PST
Civil Twilight 6:30 AM PST 5:34 PM PST
Nautical Twilight 6:00 AM PST 6:04 PM PST
Astronomical Twilight 5:30 AM PST 6:34 PM PST
Moon 3:25 PM PST (1/13) 4:51 AM PST (1/13)
Length of Visible Light 11h 03m
Length of Day
10h 09m
Waxing Gibbous, 95% of the Moon is Illuminated
Jan 13
Waxing Gibbous
Jan 15
Full
Jan 23
Last Quarter
Jan 30
New
Feb 6
First Quarter

Hourly Weather History & Observations

Time (PST) Temp. Dew Point Humidity Pressure Visibility Wind Dir Wind Speed Gust Speed Precip Events Conditions
12:51 AM 61.0 °F 26.1 °F 26% 30.15 in 10.0 mi East 11.5 mph - N/A   Clear
1:51 AM 61.0 °F 21.9 °F 22% 30.18 in 10.0 mi East 11.5 mph - N/A   Clear
2:51 AM 61.0 °F 16.0 °F 17% 30.18 in 10.0 mi East 12.7 mph - N/A   Clear
3:51 AM 61.0 °F 15.1 °F 17% 30.18 in 10.0 mi East 11.5 mph - N/A   Clear
4:51 AM 61.0 °F 15.1 °F 17% 30.21 in 10.0 mi East 12.7 mph - N/A   Clear
5:51 AM 62.1 °F 14.0 °F 15% 30.22 in 10.0 mi ESE 13.8 mph - N/A   Clear
6:51 AM 61.0 °F 15.1 °F 17% 30.24 in 10.0 mi East 11.5 mph - N/A   Clear
7:51 AM 64.0 °F 15.1 °F 15% 30.26 in 10.0 mi ENE 10.4 mph - N/A   Clear
8:51 AM 66.0 °F 10.9 °F 12% 30.29 in 10.0 mi ENE 12.7 mph - N/A   Clear
9:51 AM 66.0 °F 12.0 °F 12% 30.30 in 10.0 mi ENE 10.4 mph - N/A   Clear
10:51 AM 72.0 °F 12.9 °F 10% 30.28 in 10.0 mi East 12.7 mph 17.3 mph N/A   Clear
11:51 AM 72.0 °F 9.0 °F 9% 30.26 in 10.0 mi SE 9.2 mph - N/A   Clear
12:51 PM 71.1 °F 10.9 °F 10% 30.25 in 10.0 mi Variable 4.6 mph - N/A   Clear
1:51 PM 71.1 °F 6.1 °F 8% 30.25 in 10.0 mi ENE 6.9 mph - N/A   Clear
2:51 PM 71.1 °F 7.0 °F 8% 30.25 in 10.0 mi North 4.6 mph - N/A   Clear
3:51 PM 71.1 °F 8.1 °F 9% 30.24 in 10.0 mi ENE 4.6 mph - N/A   Clear
4:51 PM 68.0 °F 12.0 °F 11% 30.25 in 10.0 mi NNE 5.8 mph - N/A   Clear
5:51 PM 66.9 °F 12.0 °F 12% 30.25 in 10.0 mi NNE 5.8 mph - N/A   Clear
6:51 PM 68.0 °F 12.0 °F 11% 30.25 in 10.0 mi North 5.8 mph - N/A   Clear
7:51 PM 69.1 °F 10.9 °F 11% 30.25 in 10.0 mi North 3.5 mph - N/A   Clear
8:51 PM 66.9 °F 12.9 °F 12% 30.24 in 10.0 mi North 5.8 mph - N/A   Clear
9:51 PM 66.9 °F 14.0 °F 13% 30.25 in 10.0 mi East 9.2 mph - N/A   Clear
10:51 PM 66.0 °F 15.1 °F 14% 30.24 in 10.0 mi East 6.9 mph - N/A   Clear
11:51 PM 64.9 °F 16.0 °F 15% 30.24 in 10.0 mi ENE 8.1 mph - N/A   Clear